Time,TemperatureF,DewpointF,PressureIn,WindDirection,WindDirectionDegrees,WindSpeedMPH,WindSpeedGustMPH,Humidity,HourlyPrecipIn,Conditions,Clouds,dailyrainin,SoftwareType,DateUTC
2013-06-05 00:02:00,55.0,45.0,30.09,North,360,0.0,0.0,69,0.00,,,0.00,,2013-06-05 04:02:00,
2013-06-05 00:13:00,55.0,45.0,30.09,North,360,0.0,0.0,69,0.00,,,0.00,,2013-06-05 04:13:00,
2013-06-05 00:23:00,55.0,47.0,30.08,North,1,0.0,1.0,73,0.00,,,0.00,,2013-06-05 04:23:00,
2013-06-05 00:33:00,55.0,46.0,30.08,NNW,333,0.0,1.0,71,0.00,,,0.00,,2013-06-05 04:33:00,
2013-06-05 00:42:00,55.0,46.0,30.08,NNW,333,0.0,1.0,71,0.00,,,0.00,,2013-06-05 04:42:00,
2013-06-05 00:53:00,55.0,45.0,30.08,NNW,333,0.0,0.0,68,0.00,,,0.00,,2013-06-05 04:53:00,
2013-06-05 01:02:00,56.0,46.0,30.08,North,5,1.0,1.0,68,0.00,,,0.00,,2013-06-05 05:02:00,
2013-06-05 01:12:00,56.0,46.0,30.08,North,5,1.0,1.0,68,0.00,,,0.00,,2013-06-05 05:12:00,
2013-06-05 01:22:00,55.0,45.0,30.08,North,5,1.0,2.0,68,0.00,,,0.00,,2013-06-05 05:22:00,
2013-06-05 01:32:00,55.0,45.0,30.09,NNE,23,0.0,2.0,68,0.00,,,0.00,,2013-06-05 05:32:00,
2013-06-05 01:42:00,55.0,45.0,30.09,NNE,23,0.0,2.0,68,0.00,,,0.00,,2013-06-05 05:42:00,
2013-06-05 01:52:00,55.0,46.0,30.09,NNE,23,0.0,1.0,71,0.00,,,0.00,,2013-06-05 05:52:00,
2013-06-05 02:02:00,54.0,45.0,30.09,NNE,23,0.0,1.0,72,0.00,,,0.00,,2013-06-05 06:02:00,
2013-06-05 02:12:00,54.0,45.0,30.09,NNE,23,0.0,1.0,72,0.00,,,0.00,,2013-06-05 06:12:00,
2013-06-05 02:22:00,54.0,46.0,30.10,NNE,23,0.0,1.0,73,0.00,,,0.00,,2013-06-05 06:22:00,
2013-06-05 02:32:00,54.0,46.0,30.09,NNE,23,0.0,1.0,74,0.00,,,0.00,,2013-06-05 06:32:00,
2013-06-05 02:42:00,54.0,46.0,30.09,NNE,23,0.0,1.0,74,0.00,,,0.00,,2013-06-05 06:42:00,
2013-06-05 02:52:00,52.0,45.0,30.09,NNE,23,0.0,1.0,77,0.00,,,0.00,,2013-06-05 06:52:00,
2013-06-05 03:02:00,53.0,46.0,30.09,NW,309,0.0,1.0,76,0.00,,,0.00,,2013-06-05 07:02:00,
2013-06-05 03:12:00,53.0,46.0,30.09,NW,309,0.0,1.0,76,0.00,,,0.00,,2013-06-05 07:12:00,
2013-06-05 03:22:00,53.0,45.0,30.10,NW,316,0.0,2.0,74,0.00,,,0.00,,2013-06-05 07:22:00,
2013-06-05 03:32:00,53.0,45.0,30.10,WSW,246,0.0,1.0,73,0.00,,,0.00,,2013-06-05 07:32:00,
2013-06-05 03:42:00,53.0,45.0,30.10,WSW,246,0.0,1.0,73,0.00,,,0.00,,2013-06-05 07:42:00,
2013-06-05 03:52:00,54.0,46.0,30.10,NW,312,0.0,1.0,73,0.00,,,0.00,,2013-06-05 07:52:00,
2013-06-05 04:02:00,54.0,46.0,30.10,NW,312,0.0,1.0,73,0.00,,,0.00,,2013-06-05 08:02:00,
2013-06-05 04:12:00,54.0,46.0,30.10,NW,312,0.0,1.0,73,0.00,,,0.00,,2013-06-05 08:12:00,
2013-06-05 04:22:00,54.0,46.0,30.10,NW,310,0.0,0.0,73,0.00,,,0.00,,2013-06-05 08:22:00,
2013-06-05 04:32:00,54.0,46.0,30.11,SW,235,0.0,0.0,73,0.00,,,0.00,,2013-06-05 08:32:00,
2013-06-05 04:42:00,54.0,46.0,30.11,SW,235,0.0,0.0,73,0.00,,,0.00,,2013-06-05 08:42:00,
2013-06-05 04:52:00,54.0,46.0,30.11,SW,229,0.0,2.0,74,0.00,,,0.00,,2013-06-05 08:52:00,
2013-06-05 05:02:00,53.0,45.0,30.11,NNW,338,0.0,1.0,75,0.00,,,0.00,,2013-06-05 09:02:00,
2013-06-05 05:12:00,53.0,45.0,30.11,NNW,338,0.0,1.0,75,0.00,,,0.00,,2013-06-05 09:12:00,
2013-06-05 05:22:00,53.0,46.0,30.12,WSW,242,0.0,1.0,77,0.00,,,0.00,,2013-06-05 09:22:00,
2013-06-05 05:33:00,52.0,45.0,30.12,WSW,242,0.0,2.0,78,0.00,,,0.00,,2013-06-05 09:33:00,
2013-06-05 05:43:00,52.0,45.0,30.12,WSW,242,0.0,2.0,78,0.00,,,0.00,,2013-06-05 09:43:00,
2013-06-05 05:53:00,52.0,46.0,30.13,NE,47,0.0,2.0,79,0.00,,,0.00,,2013-06-05 09:53:00,
2013-06-05 06:03:00,52.0,46.0,30.13,NW,315,1.0,2.0,79,0.00,,,0.00,,2013-06-05 10:03:00,
2013-06-05 06:12:00,52.0,46.0,30.13,NW,315,1.0,2.0,79,0.00,,,0.00,,2013-06-05 10:12:00,
2013-06-05 06:22:00,53.0,47.0,30.14,WSW,257,1.0,2.0,79,0.00,,,0.00,,2013-06-05 10:22:00,
2013-06-05 06:33:00,53.0,47.0,30.14,SW,226,0.0,2.0,79,0.00,,,0.00,,2013-06-05 10:33:00,
2013-06-05 06:42:00,53.0,47.0,30.14,SW,226,0.0,2.0,79,0.00,,,0.00,,2013-06-05 10:42:00,
2013-06-05 06:53:00,53.0,47.0,30.14,SW,232,0.0,3.0,79,0.00,,,0.00,,2013-06-05 10:53:00,
2013-06-05 07:02:00,54.0,47.0,30.14,WSW,253,0.0,3.0,78,0.00,,,0.00,,2013-06-05 11:02:00,
2013-06-05 07:12:00,54.0,47.0,30.14,WSW,253,0.0,3.0,78,0.00,,,0.00,,2013-06-05 11:12:00,
2013-06-05 07:22:00,55.0,48.0,30.15,WSW,241,1.0,3.0,77,0.00,,,0.00,,2013-06-05 11:22:00,
2013-06-05 07:32:00,56.0,48.0,30.15,SW,232,1.0,4.0,74,0.00,,,0.00,,2013-06-05 11:32:00,
2013-06-05 07:42:00,56.0,48.0,30.15,SW,232,1.0,4.0,74,0.00,,,0.00,,2013-06-05 11:42:00,
2013-06-05 07:52:00,57.0,48.0,30.16,WNW,299,2.0,7.0,71,0.00,,,0.00,,2013-06-05 11:52:00,
2013-06-05 08:02:00,59.0,49.0,30.16,NNW,342,2.0,7.0,69,0.00,,,0.00,,2013-06-05 12:02:00,
2013-06-05 08:12:00,59.0,49.0,30.16,NNW,342,2.0,7.0,69,0.00,,,0.00,,2013-06-05 12:12:00,
2013-06-05 08:22:00,60.0,48.0,30.16,North,357,2.0,6.0,64,0.00,,,0.00,,2013-06-05 12:22:00,
2013-06-05 08:32:00,61.0,47.0,30.16,NW,322,2.0,10.0,61,0.00,,,0.00,,2013-06-05 12:32:00,
2013-06-05 08:44:00,61.0,47.0,30.16,NW,322,2.0,10.0,61,0.00,,,0.00,,2013-06-05 12:44:00,
2013-06-05 08:52:00,61.0,47.0,30.17,NW,314,2.0,7.0,59,0.00,,,0.00,,2013-06-05 12:52:00,
2013-06-05 09:02:00,62.0,47.0,30.17,North,1,2.0,7.0,57,0.00,,,0.00,,2013-06-05 13:02:00,
2013-06-05 09:12:00,62.0,47.0,30.17,North,1,2.0,7.0,57,0.00,,,0.00,,2013-06-05 13:12:00,
2013-06-05 09:22:00,63.0,46.0,30.17,NW,312,3.0,8.0,54,0.00,,,0.00,,2013-06-05 13:22:00,
2013-06-05 09:32:00,64.0,45.0,30.17,NE,49,2.0,7.0,51,0.00,,,0.00,,2013-06-05 13:32:00,
2013-06-05 09:42:00,64.0,45.0,30.17,NE,49,2.0,7.0,51,0.00,,,0.00,,2013-06-05 13:42:00,
2013-06-05 09:53:00,64.0,43.0,30.17,North,1,2.0,8.0,47,0.00,,,0.00,,2013-06-05 13:53:00,
2013-06-05 10:02:00,65.0,44.0,30.17,NNW,335,3.0,9.0,46,0.00,,,0.00,,2013-06-05 14:02:00,
2013-06-05 10:12:00,65.0,44.0,30.17,NNW,335,3.0,9.0,46,0.00,,,0.00,,2013-06-05 14:12:00,
2013-06-05 10:22:00,66.0,43.0,30.17,West,269,3.0,9.0,44,0.00,,,0.00,,2013-06-05 14:22:00,
2013-06-05 10:32:00,66.0,43.0,30.17,North,351,4.0,7.0,44,0.00,,,0.00,,2013-06-05 14:32:00,
2013-06-05 10:42:00,66.0,43.0,30.17,North,351,4.0,7.0,44,0.00,,,0.00,,2013-06-05 14:42:00,
2013-06-05 10:52:00,67.0,43.0,30.17,NW,322,2.0,8.0,42,0.00,,,0.00,,2013-06-05 14:52:00,
2013-06-05 11:02:00,67.0,43.0,30.17,NNW,335,2.0,10.0,42,0.00,,,0.00,,2013-06-05 15:02:00,
2013-06-05 11:12:00,67.0,43.0,30.17,NNW,335,2.0,10.0,42,0.00,,,0.00,,2013-06-05 15:12:00,
2013-06-05 11:23:00,67.0,44.0,30.16,NW,307,1.0,8.0,44,0.00,,,0.00,,2013-06-05 15:23:00,
2013-06-05 11:33:00,68.0,43.0,30.16,NNW,346,3.0,8.0,41,0.00,,,0.00,,2013-06-05 15:33:00,
2013-06-05 11:43:00,68.0,42.0,30.16,WNW,287,1.0,7.0,39,0.00,,,0.00,,2013-06-05 15:43:00,
2013-06-05 11:53:00,68.0,42.0,30.16,WNW,287,1.0,7.0,39,0.00,,,0.00,,2013-06-05 15:53:00,
2013-06-05 12:03:00,69.0,45.0,30.16,NW,322,1.0,8.0,42,0.00,,,0.00,,2013-06-05 16:03:00,
2013-06-05 12:13:00,69.0,45.0,30.16,NW,322,1.0,8.0,42,0.00,,,0.00,,2013-06-05 16:13:00,
2013-06-05 12:23:00,68.0,41.0,30.16,West,271,4.0,11.0,38,0.00,,,0.00,,2013-06-05 16:23:00,
2013-06-05 12:32:00,68.0,43.0,30.16,North,1,3.0,11.0,40,0.00,,,0.00,,2013-06-05 16:32:00,
2013-06-05 12:42:00,69.0,43.0,30.15,SW,229,4.0,7.0,39,0.00,,,0.00,,2013-06-05 16:42:00,
2013-06-05 12:54:00,69.0,43.0,30.15,SW,229,4.0,7.0,39,0.00,,,0.00,,2013-06-05 16:54:00,
2013-06-05 13:02:00,71.0,45.0,30.15,West,260,1.0,4.0,39,0.00,,,0.00,,2013-06-05 17:02:00,
2013-06-05 13:13:00,71.0,45.0,30.15,West,260,1.0,4.0,39,0.00,,,0.00,,2013-06-05 17:13:00,
2013-06-05 13:22:00,71.0,46.0,30.15,NNW,333,2.0,7.0,41,0.00,,,0.00,,2013-06-05 17:22:00,
2013-06-05 13:33:00,72.0,44.0,30.14,SSE,148,0.0,3.0,37,0.00,,,0.00,,2013-06-05 17:33:00,
2013-06-05 13:43:00,72.0,46.0,30.14,North,1,1.0,6.0,39,0.00,,,0.00,,2013-06-05 17:43:00,
2013-06-05 13:52:00,72.0,46.0,30.14,North,1,1.0,6.0,39,0.00,,,0.00,,2013-06-05 17:52:00,
2013-06-05 14:02:00,72.0,46.0,30.13,NNE,16,1.0,4.0,40,0.00,,,0.00,,2013-06-05 18:02:00,
2013-06-05 14:12:00,72.0,46.0,30.13,NNE,16,1.0,4.0,40,0.00,,,0.00,,2013-06-05 18:12:00,
2013-06-05 14:22:00,72.0,45.0,30.13,ENE,73,0.0,6.0,38,0.00,,,0.00,,2013-06-05 18:22:00,
2013-06-05 14:32:00,72.0,46.0,30.13,WSW,248,0.0,7.0,39,0.00,,,0.00,,2013-06-05 18:32:00,
2013-06-05 14:42:00,72.0,46.0,30.13,WSW,248,0.0,7.0,39,0.00,,,0.00,,2013-06-05 18:42:00,
2013-06-05 14:52:00,72.0,51.0,30.13,South,181,1.0,3.0,48,0.00,,,0.00,,2013-06-05 18:52:00,
2013-06-05 15:03:00,74.0,52.0,30.11,SSE,148,1.0,4.0,47,0.00,,,0.00,,2013-06-05 19:03:00,
2013-06-05 15:13:00,74.0,52.0,30.11,SSE,148,1.0,4.0,47,0.00,,,0.00,,2013-06-05 19:13:00,
2013-06-05 15:23:00,74.0,51.0,30.11,West,278,2.0,5.0,45,0.00,,,0.00,,2013-06-05 19:23:00,
2013-06-05 15:32:00,73.0,52.0,30.11,SSW,201,1.0,4.0,47,0.00,,,0.00,,2013-06-05 19:32:00,
2013-06-05 15:42:00,73.0,52.0,30.11,SSW,201,1.0,4.0,47,0.00,,,0.00,,2013-06-05 19:42:00,
2013-06-05 15:53:00,72.0,51.0,30.11,SSW,202,2.0,5.0,47,0.00,,,0.00,,2013-06-05 19:53:00,
2013-06-05 16:02:00,71.0,51.0,30.10,SE,137,2.0,4.0,49,0.00,,,0.00,,2013-06-05 20:02:00,
2013-06-05 16:12:00,69.0,48.0,30.10,South,173,2.0,6.0,48,0.00,,,0.00,,2013-06-05 20:12:00,
2013-06-05 16:23:00,69.0,48.0,30.10,South,173,2.0,6.0,48,0.00,,,0.00,,2013-06-05 20:23:00,
2013-06-05 16:32:00,69.0,48.0,30.10,South,179,2.0,4.0,48,0.00,,,0.00,,2013-06-05 20:32:00,
2013-06-05 16:42:00,69.0,49.0,30.10,SW,229,1.0,3.0,49,0.00,,,0.00,,2013-06-05 20:42:00,
2013-06-05 16:52:00,69.0,49.0,30.10,SW,229,1.0,3.0,49,0.00,,,0.00,,2013-06-05 20:52:00,
2013-06-05 17:02:00,69.0,48.0,30.09,SSE,153,3.0,8.0,48,0.00,,,0.00,,2013-06-05 21:02:00,
2013-06-05 17:12:00,68.0,49.0,30.09,SSE,166,2.0,5.0,50,0.00,,,0.00,,2013-06-05 21:12:00,
2013-06-05 17:22:00,68.0,49.0,30.09,SSE,166,2.0,5.0,50,0.00,,,0.00,,2013-06-05 21:22:00,
2013-06-05 17:33:00,67.0,48.0,30.09,SSW,207,3.0,5.0,50,0.00,,,0.00,,2013-06-05 21:33:00,
2013-06-05 17:43:00,66.0,48.0,30.09,SW,222,2.0,5.0,52,0.00,,,0.00,,2013-06-05 21:43:00,
2013-06-05 17:53:00,66.0,48.0,30.09,SW,222,2.0,5.0,52,0.00,,,0.00,,2013-06-05 21:53:00,
2013-06-05 18:02:00,66.0,48.0,30.09,SSW,208,2.0,5.0,52,0.00,,,0.00,,2013-06-05 22:02:00,
2013-06-05 18:13:00,66.0,48.0,30.09,SSW,208,2.0,5.0,52,0.00,,,0.00,,2013-06-05 22:13:00,
2013-06-05 18:22:00,66.0,49.0,30.09,SSE,165,1.0,4.0,54,0.00,,,0.00,,2013-06-05 22:22:00,
2013-06-05 18:33:00,66.0,50.0,30.09,South,186,1.0,4.0,57,0.00,,,0.00,,2013-06-05 22:33:00,
2013-06-05 18:42:00,65.0,49.0,30.10,South,174,1.0,7.0,57,0.00,,,0.00,,2013-06-05 22:42:00,
2013-06-05 18:53:00,65.0,49.0,30.10,South,174,1.0,7.0,57,0.00,,,0.00,,2013-06-05 22:53:00,
2013-06-05 19:02:00,65.0,49.0,30.09,South,181,1.0,5.0,57,0.00,,,0.00,,2013-06-05 23:02:00,
2013-06-05 19:12:00,64.0,49.0,30.10,SSW,207,1.0,5.0,58,0.00,,,0.00,,2013-06-05 23:12:00,
2013-06-05 19:22:00,64.0,49.0,30.10,SSW,207,1.0,5.0,58,0.00,,,0.00,,2013-06-05 23:22:00,
2013-06-05 19:32:00,64.0,50.0,30.10,South,174,1.0,4.0,60,0.00,,,0.00,,2013-06-05 23:32:00,
2013-06-05 19:42:00,64.0,50.0,30.10,South,174,1.0,4.0,60,0.00,,,0.00,,2013-06-05 23:42:00,
2013-06-05 19:53:00,63.0,50.0,30.11,SSW,193,1.0,3.0,62,0.00,,,0.00,,2013-06-05 23:53:00,
2013-06-05 20:02:00,63.0,51.0,30.10,South,176,1.0,4.0,65,0.00,,,0.00,,2013-06-06 00:02:00,
2013-06-05 20:12:00,63.0,51.0,30.10,South,176,1.0,4.0,65,0.00,,,0.00,,2013-06-06 00:12:00,
2013-06-05 20:22:00,62.0,51.0,30.10,SW,226,1.0,3.0,68,0.00,,,0.00,,2013-06-06 00:22:00,
2013-06-05 20:32:00,62.0,52.0,30.10,SSW,213,1.0,2.0,70,0.00,,,0.00,,2013-06-06 00:32:00,
2013-06-05 20:43:00,62.0,52.0,30.10,SSW,213,1.0,2.0,70,0.00,,,0.00,,2013-06-06 00:43:00,
2013-06-05 20:52:00,61.0,52.0,30.10,SW,219,1.0,2.0,73,0.00,,,0.00,,2013-06-06 00:52:00,
2013-06-05 21:02:00,60.0,52.0,30.10,SSW,211,1.0,2.0,74,0.00,,,0.00,,2013-06-06 01:02:00,
2013-06-05 21:12:00,60.0,52.0,30.10,SSW,211,1.0,2.0,74,0.00,,,0.00,,2013-06-06 01:12:00,
2013-06-05 21:22:00,60.0,52.0,30.10,SW,221,2.0,3.0,75,0.00,,,0.00,,2013-06-06 01:22:00,
2013-06-05 21:32:00,60.0,51.0,30.11,South,190,2.0,4.0,72,0.00,,,0.00,,2013-06-06 01:32:00,
2013-06-05 21:42:00,60.0,51.0,30.11,South,190,2.0,4.0,72,0.00,,,0.00,,2013-06-06 01:42:00,
2013-06-05 21:53:00,61.0,52.0,30.12,SW,219,1.0,3.0,71,0.00,,,0.00,,2013-06-06 01:53:00,
2013-06-05 22:02:00,60.0,50.0,30.12,SSW,197,2.0,3.0,70,0.00,,,0.00,,2013-06-06 02:02:00,
2013-06-05 22:12:00,60.0,50.0,30.12,SSW,197,2.0,3.0,70,0.00,,,0.00,,2013-06-06 02:12:00,
2013-06-05 22:22:00,61.0,51.0,30.12,South,189,2.0,4.0,69,0.00,,,0.00,,2013-06-06 02:22:00,
2013-06-05 22:32:00,60.0,50.0,30.13,South,190,2.0,4.0,69,0.00,,,0.00,,2013-06-06 02:32:00,
2013-06-05 22:42:00,60.0,50.0,30.13,South,190,2.0,4.0,69,0.00,,,0.00,,2013-06-06 02:42:00,
2013-06-05 22:52:00,60.0,50.0,30.13,South,190,2.0,4.0,69,0.00,,,0.00,,2013-06-06 02:52:00,
2013-06-05 23:02:00,60.0,50.0,30.12,South,191,2.0,3.0,70,0.00,,,0.00,,2013-06-06 03:02:00,
2013-06-05 23:12:00,60.0,50.0,30.12,South,191,2.0,3.0,70,0.00,,,0.00,,2013-06-06 03:12:00,
2013-06-05 23:22:00,60.0,50.0,30.13,South,187,2.0,4.0,69,0.00,,,0.00,,2013-06-06 03:22:00,
2013-06-05 23:33:00,60.0,50.0,30.13,SW,219,1.0,4.0,69,0.00,,,0.00,,2013-06-06 03:33:00,
2013-06-05 23:43:00,60.0,50.0,30.13,SW,219,1.0,4.0,69,0.00,,,0.00,,2013-06-06 03:43:00,
2013-06-05 23:53:00,60.0,50.0,30.13,South,177,2.0,3.0,69,0.00,,,0.00,,2013-06-06 03:53:00,